Orbital Elements at Epoch 2459200.5 (2020-Dec-17.0) TDB
Reference: JPL 24 (heliocentric ecliptic J2000)
Element | Value | Uncertainty (1-sigma) | Units |
e | .2210180380632765 | 4.359e-08 | |
a | 2.745427419080907 | 1.6107e-08 | au |
q | 2.13863843727052 | 1.1502e-07 | au |
i | 6.914974073166049 | 5.0964e-06 | deg |
node | 309.3127138894102 | 3.7986e-05 | deg |
peri | 257.2730796776194 | 4.0506e-05 | deg |
M | 61.19153215235097 | 1.0984e-05 | deg |
tp | 2458918.075607213493 (2020-Mar-09.57560721) | 5.0923e-05 | TDB |
period | 1661.549855460456 4.55 | 1.4622e-05 4.003e-08 | d yr |
n | .2166651808953606 | 1.9067e-09 | deg/d |
Q | 3.352216400891294 | 1.9667e-08 | au |
|
| | Orbit Determination Parameters
Additional Information
|